Location: Noordwijk
(52.2400°N, 4.4500°E)
Time: 19:42:36
(UTC+00:00)

CAS-4A - Pass Details

Date: 07 December 2022
Orbit: 514 x 531 km, 43.0° (Epoch: 05 February)

Event Time Altitude Azimuth Distance (km) Brightness Sun altitude
Rises 06:57:30 0° 245° (WSW) 2,663 ? -5.8°
Reaches altitude 10° 07:00:04 10° 231° (SW) 1,777 ? -5.5°
Maximum altitude 07:03:16 22° 179° (S) 1,179 ? -5.1°
Drops below altitude 10° 07:06:29 10° 127° (SE) 1,784 ? -4.6°
Sets 07:09:03 0° 112° (ESE) 2,676 ? -4.3°
